Temp
7 7 8 8 8 8 8 8 8 8 8 8 8 8 8 8 8 7 6 6 6 6 6 6 6 7 7 7 7 7 7 7 7 7 7 8 8 8 8 8 8 8 8 9 9 9 9 9 9 9 9 9 9 10 10 10 10 11 11 11 11 11 11 11 11 11 11 11 12
7 7 7 8 8 8 7 8 8 8 8 8 8 8 8 8 8 7 7 6 6 6 6 6 6 6 7 7 7 7 7 7 7 7 7 8 8 8 8 8 8 8 8 8 9 9 9 8 8 9 9 9 9 9 10 10 10 10 11 11 11 11 11 11 11 11 11 11 11
7 7 7 7 8 8 7 7 8 8 8 8 8 8 8 8 8 8 7 6 6 6 6 6 6 6 6 6 7 7 7 7 7 7 7 7 8 8 8 8 8 8 8 8 8 8 8 8 8 8 8 8 9 9 9 10 10 10 10 11 11 11 11 11 11 11 11 11 11
7 7 7 7 8 8 7 7 7 8 8 8 8 8 8 8 8 8 7 7 6 6 6 6 6 6 6 6 6 7 7 7 7 7 7 7 7 8 8 8 8 8 8 8 8 8 8 8 8 8 8 8 8 9 9 9 10 10 10 10 11 11 11 11 11 11 11 11 11
7 7 7 7 7 7 7 7 7 7 8 8 8 7 8 8 8 8 8 7 7 6 6 6 6 6 6 6 6 6 6 7 7 7 7 7 7 7 8 8 8 8 8 8 8 8 8 8 8 8 8 8 8 9 9 9 9 10 10 10 10 10 11 11 11 11 11 11 11
7 7 7 7 7 7 7 7 7 7 7 7 7 7 7 7 7 8 7 7 7 7 6 6 6 6 6 6 6 6 6 6 7 7 7 7 7 7 7 7 7 7 8 8 8 8 8 8 8 8 8 8 8 8 9 9 9 9 9 10 10 10 10 10 11 11 11 10 11
7 7 7 7 7 7 7 7 7 7 7 7 7 7 7 7 7 7 7 7 7 7 7 6 6 6 6 6 6 6 6 6 6 7 7 7 7 7 7 7 7 7 8 8 8 8 8 8 8 8 8 8 8 8 8 8 9 9 9 9 9 10 10 10 10 10 10 10 10
7 6 6 6 7 7 7 7 7 7 7 7 7 7 7 7 7 7 7 7 7 7 7 7 6 6 6 6 6 6 6 6 6 6 6 7 7 7 7 7 7 7 8 8 8 8 8 8 8 8 7 7 7 8 8 8 8 9 9 9 9 9 10 10 10 10 10 10 10
7 6 6 6 6 6 7 7 7 7 7 7 7 7 7 7 7 7 7 7 7 7 7 7 7 6 6 6 6 6 6 6 6 6 6 6 6 7 7 7 7 7 7 8 7 7 8 8 8 8 7 7 7 7 7 8 8 8 9 9 9 9 9 9 10 10 10 10 10
6 6 6 6 6 6 6 7 7 7 7 7 7 7 7 7 7 7 7 7 7 7 7 7 7 7 6 6 6 6 6 6 6 6 6 6 6 6 6 7 7 7 7 7 7 7 7 7 8 8 7 7 7 7 7 7 8 8 8 9 9 9 9 9 9 9 9 10 10
6 6 6 6 6 6 6 6 7 7 7 7 7 7 7 7 7 7 7 7 7 7 7 7 7 7 7 6 6 6 6 6 6 6 6 6 6 6 6 6 6 6 7 7 7 7 7 7 7 7 7 7 7 7 7 7 7 8 8 8 8 9 9 9 9 9 9 9 9
6 6 6 6 6 6 6 6 6 7 7 7 7 7 7 7 7 7 7 7 7 7 7 7 7 7 7 7 6 6 6 6 6 6 6 6 6 6 6 6 6 6 6 6 7 7 7 7 7 7 7 7 7 7 7 7 7 7 8 8 8 8 8 8 9 9 9 9 9
6 6 6 6 6 6 6 6 6 6 7 7 7 7 7 7 7 7 7 7 7 7 7 7 7 7 7 7 6 6 6 6 6 6 6 6 6 6 6 6 6 6 6 6 6 7 7 7 7 7 7 7 7 7 7 7 7 7 7 7 8 8 8 8 8 8 9 9 9
6 6 6 6 6 6 6 6 6 6 6 7 7 7 7 7 7 7 7 7 7 7 7 7 7 7 7 7 7 6 6 6 6 6 6 5 5 5 5 5 5 5 6 6 6 6 6 7 7 7 7 7 7 7 7 7 7 7 7 7 7 7 8 8 8 8 8 8 8
6 6 6 6 6 6 6 6 6 6 6 6 7 7 7 7 7 7 7 7 7 7 7 7 7 7 7 7 7 7 6 6 6 6 6 6 5 5 5 5 5 5 5 5 6 6 6 6 6 6 7 7 7 7 7 7 7 7 7 7 7 7 7 7 7 7 8 8 8
7 6 6 6 6 6 6 6 6 6 6 6 6 6 7 7 7 7 7 7 7 6 6 6 7 7 7 7 7 7 6 6 6 6 6 6 5 5 5 5 5 5 5 5 5 5 6 6 6 6 6 6 6 6 7 7 7 7 7 7 7 7 7 7 7 7 7 7 7
7 6 6 6 6 6 6 6 6 6 6 6 6 6 6 6 7 7 7 7 6 6 6 6 6 6 6 7 7 7 6 6 6 6 6 6 6 5 5 5 5 5 5 5 5 5 5 5 6 6 6 6 6 6 6 7 7 7 7 7 7 7 7 7 7 7 7 7 7
7 7 6 6 6 6 6 6 6 6 5 5 5 6 6 6 6 6 7 7 6 6 6 6 6 6 6 6 6 6 6 6 6 6 6 6 6 5 5 5 5 5 5 5 5 5 5 5 5 5 6 6 6 6 6 6 6 7 7 7 7 7 7 7 7 7 7 7 7
7 7 6 6 6 6 6 6 6 6 5 5 5 5 6 6 6 6 6 6 6 6 6 6 6 6 6 6 6 6 6 6 6 6 6 6 6 6 5 5 5 5 5 5 5 5 5 5 5 5 5 5 6 6 6 6 6 6 7 7 7 7 7 7 7 7 7 7 7
7 6 6 6 6 6 6 6 6 6 5 5 5 5 5 6 6 6 6 6 6 6 6 6 6 6 6 6 6 6 6 6 6 6 6 6 6 6 5 5 5 5 5 5 5 5 5 5 5 5 5 5 5 5 6 6 6 6 6 7 7 7 7 7 7 7 7 7 7
6 6 6 6 6 6 6 5 5 5 5 5 5 5 5 5 6 6 6 6 6 6 6 6 6 6 6 6 6 6 6 6 6 6 6 6 6 6 5 5 5 5 4 4 5 5 5 5 5 5 5 5 5 5 5 5 6 6 6 6 7 7 7 7 7 7 7 7 7
6 6 6 6 6 6 6 5 5 5 5 5 5 5 5 5 5 6 6 6 6 6 6 6 6 6 6 6 6 6 6 6 6 6 6 6 6 6 5 5 5 4 4 4 4 4 4 4 5 5 5 5 5 5 5 5 5 5 6 6 6 6 7 7 7 7 7 7 7
6 6 6 6 6 6 6 5 5 5 5 5 5 5 5 5 5 5 6 6 6 6 6 6 6 6 6 5 6 6 6 6 6 6 6 6 6 6 5 5 5 5 4 4 4 4 4 4 4 4 4 4 4 4 4 5 5 5 5 5 6 6 6 6 7 7 7 7 7
6 6 6 6 6 6 6 5 5 5 5 5 5 5 5 5 5 5 5 6 6 6 6 6 6 6 6 5 5 6 6 6 6 6 6 6 6 6 6 5 5 5 4 4 4 4 4 4 4 4 4 4 4 4 4 4 4 5 5 5 5 6 6 6 6 6 7 7 7
6 6 6 6 6 6 6 5 5 5 5 5 5 5 5 5 5 5 5 5 6 6 6 6 6 6 6 6 5 5 6 6 6 6 6 6 6 6 6 5 5 5 4 4 4 4 3 3 3 3 4 4 4 4 4 4 4 4 4 5 5 5 5 6 6 6 6 7 7
5 5 6 6 6 6 5 5 5 5 5 5 5 5 5 5 5 5 5 5 6 6 6 6 6 6 6 6 5 5 5 6 6 6 6 6 6 6 6 5 5 5 5 4 4 4 4 3 3 3 3 3 3 3 4 4 4 4 4 4 4 5 5 5 5 6 6 6 6
5 5 5 5 5 5 5 5 5 5 5 5 5 5 5 5 5 5 5 5 5 6 6 6 6 6 6 6 6 6 5 5 5 6 6 6 6 6 6 5 5 5 5 5 4 4 4 3 3 3 3 3 3 3 3 3 3 4 4 4 4 4 4 5 5 5 5 6 6
5 5 5 5 5 5 5 5 5 5 5 5 5 5 5 5 5 5 5 5 5 5 6 6 6 6 6 6 6 6 5 5 5 5 5 5 6 6 6 5 5 5 5 5 4 4 4 4 3 3 3 3 3 3 3 3 3 3 3 4 4 4 4 4 5 5 5 5 5
5 5 5 5 5 5 5 5 5 5 5 5 5 5 5 5 5 5 5 5 5 5 5 5 6 6 6 6 6 6 5 5 5 5 5 5 5 6 5 5 5 5 5 5 5 4 4 4 3 3 3 3 3 3 3 3 3 3 3 3 3 4 4 4 4 4 5 5 5
5 5 5 5 5 5 5 5 5 5 5 5 5 5 5 5 5 5 5 5 5 5 5 5 5 6 6 6 6 6 6 5 5 5 5 5 5 5 5 5 5 5 5 5 5 4 4 4 4 3 3 3 3 3 3 3 3 3 3 3 3 3 3 4 4 4 4 4 5
5 5 5 5 5 5 5 5 5 5 5 5 5 5 5 5 5 5 5 5 5 5 5 5 5 5 6 6 6 6 6 5 5 5 5 5 5 5 5 5 5 5 5 5 5 5 4 4 4 3 3 3 3 3 3 3 3 3 3 3 3 3 3 3 3 4 4 4 4
5 5 5 5 5 5 5 5 5 5 5 5 5 5 5 5 5 5 5 4 4 4 4 5 5 5 5 6 6 6 6 5 5 5 5 5 5 5 5 5 5 5 5 5 5 5 4 4 4 4 3 3 3 3 2 2 2 3 3 3 3 3 3 3 3 3 3 4 4
4 4 5 5 5 5 5 5 5 5 5 5 5 5 5 5 4 4 4 4 4 4 4 4 4 5 5 5 5 5 5 5 5 5 5 5 5 5 5 5 5 5 5 5 5 4 4 4 4 4 4 3 3 3 3 2 2 2 2 3 3 3 3 3 3 3 3 3 3
4 4 4 4 5 5 5 4 4 4 5 5 5 5 5 5 4 4 4 4 4 4 4 4 4 4 4 5 5 5 5 5 5 5 5 5 5 5 5 5 5 5 5 5 4 4 4 4 4 4 4 4 3 3 3 3 2 2 2 2 2 3 3 3 3 3 3 3 3
4 4 4 4 4 4 4 4 4 4 4 5 5 5 5 4 4 4 4 4 4 4 4 4 4 4 4 4 5 5 5 5 5 5 5 5 5 5 5 5 5 5 5 4 4 4 4 4 4 4 4 4 4 3 3 3 3 2 2 2 2 2 2 3 3 3 3 3 3
3 4 4 4 4 4 4 4 4 4 4 4 5 5 5 4 4 4 4 4 4 4 4 4 4 4 4 4 4 5 5 5 5 5 5 4 4 5 5 5 5 4 4 4 4 4 4 4 4 4 4 4 4 4 3 3 3 3 2 2 2 2 2 2 2 3 3 3 3
3 3 4 4 4 4 4 4 4 4 4 4 4 4 4 4 4 4 4 4 4 4 4 4 4 4 4 4 4 4 5 5 5 5 5 4 4 4 4 4 4 4 4 4 4 4 4 4 3 3 3 4 4 4 4 3 3 3 3 2 2 2 2 2 2 2 2 2 3
3 3 3 3 3 3 3 4 4 4 4 4 4 4 4 4 4 4 4 3 3 4 4 4 4 4 4 4 4 4 4 4 5 5 4 4 4 4 4 4 4 4 4 4 4 4 4 3 3 3 3 4 4 4 4 4 3 3 3 3 3 2 2 2 2 2 2 2 2
3 3 3 3 3 3 3 3 3 3 3 3 4 4 4 4 4 4 4 3 3 3 3 4 4 4 4 4 4 4 4 4 4 4 4 4 4 4 4 4 4 4 4 4 4 4 4 3 3 3 3 4 4 4 4 4 4 3 3 3 3 3 2 2 2 2 2 2 2
3 3 3 3 3 3 3 3 3 3 3 3 3 3 4 4 4 3 3 3 3 3 3 3 4 4 4 3 3 4 4 4 4 4 4 4 4 4 4 4 4 4 4 4 4 4 4 3 3 3 3 3 3 3 3 3 3 3 3 3 3 3 3 3 2 2 2 2 2
3 3 3 3 3 3 3 3 3 3 3 3 3 3 3 3 3 3 3 3 3 3 3 3 3 3 3 3 3 3 4 4 4 4 4 4 4 4 3 3 3 3 3 4 4 4 4 3 3 3 3 3 3 3 3 3 3 3 3 3 3 3 3 3 3 2 2 2 2
Height
1446 1445 1445 1445 1445 1444 1443 1442 1442 1441 1440 1440 1439 1439 1439 1438 1438 1438 1437 1437 1437 1437 1437 1437 1436 1436 1436 1436 1435 1435 1435 1435 1435 1435 1434 1434 1434 1434 1434 1434 1434 1434 1433 1433 1433 1433 1433 1433 1433 1433 1433 1433 1434 1434 1434 1435 1435 1436 1437 1438 1438 1439 1440 1440 1440 1440 1440 1441 1442
1445 1445 1445 1445 1444 1444 1443 1443 1442 1441 1440 1440 1440 1439 1439 1438 1438 1438 1437 1437 1437 1437 1437 1437 1436 1436 1436 1436 1435 1435 1435 1435 1435 1434 1434 1434 1434 1434 1434 1434 1434 1433 1433 1433 1433 1433 1433 1433 1433 1433 1433 1433 1433 1434 1434 1434 1435 1435 1436 1437 1437 1437 1438 1439 1439 1439 1439 1440 1440
1445 1445 1444 1444 1444 1444 1443 1443 1442 1441 1441 1440 1440 1439 1439 1438 1438 1437 1437 1437 1437 1437 1437 1436 1436 1436 1436 1436 1435 1435 1435 1435 1434 1434 1434 1434 1434 1434 1434 1434 1434 1433 1433 1433 1433 1434 1434 1434 1433 1433 1433 1433 1433 1433 1433 1434 1434 1434 1435 1435 1436 1436 1436 1436 1438 1438 1438 1438 1439
1444 1444 1444 1444 1444 1443 1443 1443 1442 1441 1441 1440 1440 1439 1439 1438 1438 1438 1437 1437 1437 1436 1436 1436 1436 1436 1436 1436 1435 1435 1435 1435 1434 1434 1434 1434 1434 1433 1433 1433 1433 1433 1433 1434 1434 1434 1434 1434 1433 1433 1432 1432 1432 1433 1433 1433 1433 1433 1433 1434 1434 1435 1435 1435 1435 1436 1437 1437 1438
1444 1443 1443 1443 1443 1443 1443 1442 1442 1441 1441 1440 1440 1439 1439 1438 1438 1438 1437 1437 1437 1436 1436 1436 1436 1436 1436 1435 1435 1435 1435 1434 1434 1434 1434 1433 1433 1433 1433 1433 1433 1433 1434 1434 1434 1434 1434 1434 1433 1433 1432 1432 1432 1432 1432 1432 1432 1432 1432 1433 1434 1434 1434 1434 1434 1434 1435 1436 1437
1443 1443 1442 1442 1442 1442 1442 1442 1441 1441 1441 1440 1440 1439 1439 1438 1438 1438 1437 1437 1437 1436 1436 1436 1436 1435 1435 1435 1435 1435 1435 1434 1434 1434 1433 1433 1433 1433 1433 1433 1433 1433 1433 1434 1434 1434 1434 1433 1433 1433 1433 1432 1432 1432 1432 1432 1432 1432 1432 1433 1433 1433 1433 1433 1433 1433 1434 1435 1436
1442 1442 1442 1441 1441 1441 1441 1441 1441 1441 1440 1440 1440 1439 1439 1438 1438 1438 1437 1437 1437 1436 1436 1436 1435 1435 1435 1435 1435 1435 1435 1434 1434 1433 1433 1433 1432 1432 1432 1432 1433 1433 1433 1433 1433 1433 1433 1433 1433 1433 1433 1433 1432 1432 1432 1432 1432 1432 1432 1433 1433 1432 1432 1433 1432 1432 1433 1434 1435
1441 1441 1441 1441 1440 1440 1440 1440 1440 1440 1440 1440 1439 1439 1439 1438 1438 1438 1437 1437 1437 1436 1436 1436 1435 1435 1435 1435 1435 1435 1434 1434 1434 1433 1433 1432 1432 1432 1432 1432 1432 1432 1432 1433 1433 1433 1433 1433 1433 1433 1433 1433 1433 1433 1433 1433 1433 1432 1432 1433 1432 1431 1432 1432 1432 1432 1432 1433 1434
1440 1440 1440 1440 1440 1440 1439 1439 1439 1439 1439 1439 1439 1439 1438 1438 1438 1437 1437 1437 1436 1436 1436 1436 1435 1435 1435 1435 1435 1434 1434 1434 1434 1433 1433 1432 1432 1432 1432 1432 1431 1431 1432 1432 1432 1433 1433 1433 1433 1433 1434 1434 1434 1434 1434 1433 1433 1432 1432 1432 1432 1431 1432 1432 1432 1432 1432 1432 1433
1440 1440 1439 1439 1439 1439 1438 1438 1438 1439 1439 1438 1438 1438 1438 1438 1438 1437 1437 1437 1436 1436 1436 1436 1435 1435 1435 1435 1434 1434 1434 1434 1434 1433 1433 1433 1432 1432 1431 1431 1431 1431 1431 1431 1432 1432 1433 1433 1433 1433 1434 1434 1434 1434 1434 1434 1433 1432 1432 1432 1432 1432 1431 1431 1431 1431 1432 1432 1433
1439 1439 1438 1438 1438 1438 1437 1437 1437 1437 1438 1438 1438 1438 1437 1437 1437 1437 1437 1436 1436 1436 1436 1435 1435 1435 1435 1435 1434 1434 1434 1434 1433 1433 1433 1433 1432 1432 1432 1431 1431 1431 1431 1431 1431 1432 1432 1432 1433 1433 1433 1434 1434 1434 1434 1434 1433 1433 1432 1432 1432 1431 1430 1430 1430 1431 1432 1432 1432
1438 1438 1437 1437 1437 1437 1436 1436 1436 1436 1437 1437 1437 1437 1437 1437 1437 1436 1436 1436 1436 1435 1435 1435 1435 1435 1435 1435 1434 1434 1434 1434 1433 1433 1433 1433 1433 1432 1432 1431 1431 1431 1431 1431 1431 1431 1431 1432 1432 1433 1433 1433 1434 1434 1434 1434 1433 1433 1432 1432 1432 1431 1431 1430 1431 1431 1431 1432 1432
1437 1437 1437 1436 1436 1436 1435 1435 1435 1435 1435 1436 1436 1436 1436 1436 1436 1436 1436 1436 1435 1435 1435 1435 1435 1435 1435 1434 1434 1434 1434 1434 1433 1433 1433 1433 1433 1432 1432 1432 1431 1431 1431 1430 1430 1430 1431 1431 1432 1432 1433 1433 1433 1434 1434 1434 1434 1433 1433 1432 1432 1432 1431 1431 1431 1431 1431 1432 1432
1436 1436 1436 1436 1435 1435 1435 1435 1434 1434 1435 1435 1435 1435 1435 1435 1435 1435 1435 1435 1435 1435 1435 1435 1435 1435 1435 1434 1434 1434 1434 1434 1433 1433 1433 1433 1433 1432 1432 1432 1431 1431 1431 1430 1430 1430 1430 1431 1431 1432 1432 1432 1433 1433 1433 1434 1434 1433 1433 1433 1432 1432 1432 1432 1432 1432 1432 1432 1432
1435 1435 1435 1435 1435 1434 1434 1434 1434 1433 1433 1434 1434 1434 1434 1434 1434 1434 1434 1434 1434 1434 1434 1434 1434 1434 1434 1434 1434 1434 1434 1433 1433 1433 1433 1433 1432 1432 1432 1431 1431 1431 1430 1430 1430 1430 1430 1430 1430 1431 1431 1432 1432 1432 1433 1433 1433 1433 1433 1433 1433 1433 1433 1433 1432 1432 1432 1432 1432
1434 1434 1434 1434 1434 1433 1433 1433 1433 1432 1432 1432 1433 1433 1433 1433 1433 1433 1433 1434 1434 1434 1434 1434 1433 1433 1433 1433 1433 1433 1433 1433 1433 1433 1433 1432 1432 1432 1432 1431 1431 1431 1430 1430 1430 1430 1430 1430 1430 1430 1431 1431 1431 1432 1432 1432 1433 1433 1433 1433 1433 1433 1433 1433 1433 1433 1432 1432 1432
1433 1433 1433 1433 1432 1432 1432 1432 1432 1431 1431 1431 1431 1431 1432 1432 1432 1432 1432 1433 1433 1433 1433 1433 1433 1433 1433 1433 1433 1433 1433 1433 1433 1433 1432 1432 1432 1432 1432 1431 1431 1431 1430 1430 1430 1430 1430 1430 1430 1430 1430 1430 1430 1431 1431 1431 1432 1432 1432 1433 1433 1433 1433 1433 1433 1433 1432 1432 1432
1432 1432 1432 1431 1431 1431 1431 1431 1430 1430 1430 1430 1430 1430 1430 1430 1431 1431 1431 1431 1432 1432 1432 1432 1432 1432 1432 1432 1432 1432 1432 1432 1432 1432 1432 1432 1432 1432 1432 1431 1431 1431 1430 1430 1430 1430 1430 1429 1429 1429 1429 1429 1430 1430 1430 1430 1431 1431 1431 1432 1432 1432 1432 1432 1432 1432 1432 1432 1432
1430 1430 1430 1430 1430 1430 1430 1430 1429 1429 1429 1429 1429 1429 1429 1429 1430 1430 1430 1430 1430 1431 1431 1431 1431 1431 1431 1431 1431 1432 1432 1432 1432 1431 1431 1431 1431 1431 1431 1431 1431 1431 1430 1430 1430 1430 1429 1429 1429 1429 1429 1429 1429 1429 1430 1430 1430 1430 1430 1430 1431 1431 1431 1431 1432 1432 1432 1432 1432
1430 1429 1429 1429 1429 1429 1428 1428 1428 1428 1427 1427 1427 1427 1427 1428 1428 1428 1429 1429 1429 1430 1430 1430 1430 1431 1431 1431 1431 1431 1431 1431 1431 1431 1431 1431 1431 1431 1431 1431 1431 1431 1430 1430 1430 1430 1429 1429 1429 1429 1429 1429 1429 1429 1429 1429 1430 1429 1429 1430 1430 1430 1431 1431 1431 1431 1432 1432 1432
1428 1428 1428 1428 1428 1427 1427 1427 1426 1426 1426 1426 1425 1426 1426 1426 1426 1427 1427 1428 1428 1428 1429 1429 1430 1430 1430 1430 1430 1430 1430 1430 1430 1430 1430 1430 1430 1430 1430 1430 1430 1430 1430 1430 1430 1430 1429 1429 1429 1429 1429 1428 1428 1429 1429 1429 1429 1429 1429 1429 1429 1430 1430 1431 1431 1431 1432 1432 1432
1427 1427 1427 1427 1426 1426 1426 1425 1425 1425 1425 1425 1424 1424 1424 1425 1425 1425 1426 1426 1426 1427 1427 1428 1428 1429 1429 1429 1429 1429 1429 1430 1430 1430 1430 1430 1430 1430 1430 1430 1430 1430 1430 1430 1430 1430 1430 1429 1429 1429 1429 1428 1428 1429 1429 1429 1429 1429 1429 1429 1429 1429 1430 1430 1431 1431 1432 1432 1433
1426 1426 1426 1425 1425 1425 1425 1424 1424 1424 1423 1423 1423 1423 1423 1423 1423 1424 1424 1425 1425 1425 1426 1426 1427 1427 1428 1428 1428 1428 1429 1429 1429 1429 1429 1429 1429 1429 1429 1430 1429 1429 1429 1430 1430 1430 1430 1429 1429 1429 1429 1429 1429 1429 1429 1429 1429 1429 1429 1429 1429 1429 1430 1430 1431 1431 1431 1432 1433
1425 1425 1425 1425 1424 1424 1423 1423 1423 1422 1422 1422 1422 1421 1421 1421 1422 1422 1422 1423 1423 1424 1425 1425 1425 1426 1426 1427 1427 1427 1428 1428 1428 1428 1428 1428 1428 1429 1429 1429 1429 1429 1429 1429 1429 1429 1429 1429 1429 1429 1429 1429 1429 1429 1429 1429 1429 1429 1429 1429 1429 1429 1430 1430 1430 1431 1431 1431 1432
1425 1424 1424 1423 1423 1423 1422 1422 1422 1421 1421 1421 1420 1420 1420 1420 1420 1420 1421 1421 1422 1422 1423 1424 1424 1425 1425 1425 1426 1426 1426 1427 1427 1427 1427 1427 1427 1428 1428 1428 1428 1428 1428 1428 1428 1428 1429 1429 1429 1429 1429 1429 1429 1429 1429 1429 1429 1429 1429 1429 1429 1429 1430 1430 1430 1430 1430 1430 1431
1423 1423 1423 1422 1422 1421 1421 1421 1420 1420 1420 1419 1419 1419 1419 1418 1418 1419 1419 1420 1420 1421 1421 1422 1423 1423 1424 1424 1425 1425 1425 1426 1426 1426 1426 1426 1426 1427 1427 1427 1427 1427 1427 1427 1428 1428 1428 1428 1428 1428 1429 1429 1429 1429 1429 1429 1429 1429 1429 1429 1429 1429 1429 1430 1430 1430 1430 1430 1431
1422 1422 1421 1421 1420 1420 1420 1420 1419 1419 1418 1418 1418 1417 1417 1417 1417 1417 1417 1418 1419 1419 1420 1420 1421 1422 1422 1423 1423 1424 1424 1425 1425 1425 1425 1425 1425 1426 1426 1426 1426 1426 1427 1427 1427 1427 1427 1427 1427 1428 1428 1428 1428 1428 1428 1429 1429 1429 1429 1429 1429 1429 1429 1429 1429 1430 1430 1430 1431
1420 1420 1420 1420 1419 1419 1419 1418 1418 1417 1417 1417 1416 1416 1416 1415 1415 1415 1415 1416 1417 1417 1418 1419 1419 1420 1421 1421 1422 1422 1423 1423 1424 1424 1424 1424 1425 1425 1425 1425 1425 1425 1426 1426 1426 1426 1426 1426 1427 1427 1427 1427 1427 1428 1428 1428 1428 1428 1428 1428 1429 1429 1429 1429 1429 1430 1430 1430 1431
1419 1419 1418 1418 1418 1417 1417 1417 1416 1416 1416 1415 1415 1415 1414 1414 1414 1414 1414 1414 1415 1415 1416 1417 1418 1418 1419 1420 1420 1421 1422 1422 1422 1423 1423 1423 1424 1424 1424 1424 1424 1425 1425 1425 1425 1425 1425 1425 1426 1426 1426 1427 1427 1427 1427 1428 1428 1428 1428 1428 1428 1428 1429 1429 1429 1429 1430 1430 1430
1418 1417 1417 1416 1416 1416 1416 1415 1415 1415 1414 1414 1413 1413 1413 1412 1412 1412 1412 1413 1413 1413 1414 1415 1415 1416 1417 1418 1419 1420 1420 1421 1421 1422 1422 1422 1423 1423 1423 1423 1423 1423 1424 1424 1425 1425 1425 1425 1425 1425 1425 1426 1426 1426 1427 1427 1428 1428 1428 1428 1428 1428 1428 1428 1429 1429 1430 1430 1430
1416 1416 1415 1415 1415 1414 1414 1414 1413 1413 1412 1412 1412 1411 1411 1411 1411 1411 1411 1411 1411 1412 1412 1413 1413 1414 1415 1416 1417 1418 1419 1419 1420 1420 1421 1421 1422 1422 1422 1422 1422 1422 1423 1423 1423 1424 1424 1424 1424 1425 1425 1425 1425 1425 1426 1426 1427 1427 1428 1428 1428 1428 1428 1428 1428 1429 1429 1430 1430
1415 1414 1414 1413 1413 1413 1412 1412 1412 1411 1411 1410 1410 1410 1410 1410 1410 1410 1410 1410 1410 1410 1410 1410 1411 1412 1413 1414 1415 1416 1417 1418 1418 1419 1420 1420 1420 1421 1421 1421 1421 1421 1422 1422 1422 1423 1423 1423 1423 1424 1424 1424 1424 1425 1425 1425 1426 1426 1427 1427 1428 1428 1428 1428 1428 1428 1429 1429 1429
1413 1412 1412 1411 1411 1411 1411 1410 1410 1410 1409 1409 1409 1408 1408 1408 1408 1408 1408 1408 1408 1408 1408 1409 1409 1410 1411 1412 1413 1414 1415 1416 1417 1418 1418 1419 1419 1420 1420 1420 1420 1420 1420 1421 1421 1422 1422 1422 1422 1423 1423 1423 1424 1424 1424 1425 1425 1425 1426 1427 1427 1428 1428 1428 1428 1428 1428 1428 1429
1411 1410 1410 1410 1409 1409 1409 1409 1408 1408 1408 1407 1407 1407 1406 1406 1406 1406 1406 1407 1407 1407 1407 1407 1408 1408 1409 1410 1411 1412 1413 1414 1415 1416 1417 1417 1418 1418 1419 1419 1419 1419 1420 1420 1420 1420 1421 1421 1421 1422 1422 1422 1423 1423 1423 1424 1424 1425 1425 1426 1426 1427 1427 1428 1428 1428 1428 1428 1428
1409 1408 1408 1408 1407 1407 1407 1407 1407 1406 1406 1406 1405 1405 1405 1405 1405 1405 1405 1405 1405 1405 1405 1405 1406 1406 1407 1408 1409 1410 1411 1412 1413 1414 1415 1416 1416 1417 1418 1418 1418 1418 1418 1419 1419 1420 1420 1420 1420 1421 1421 1421 1422 1422 1422 1423 1423 1424 1424 1425 1425 1426 1426 1427 1427 1427 1428 1428 1428
1407 1406 1406 1406 1405 1405 1405 1405 1405 1405 1404 1404 1404 1404 1403 1403 1403 1403 1403 1403 1403 1404 1404 1404 1404 1405 1405 1406 1407 1408 1409 1410 1411 1412 1413 1414 1415 1415 1416 1417 1417 1417 1417 1418 1418 1418 1419 1419 1420 1420 1420 1420 1420 1421 1421 1422 1422 1423 1423 1424 1424 1425 1425 1426 1426 1427 1427 1428 1428
1405 1405 1404 1404 1404 1404 1403 1403 1403 1403 1403 1403 1403 1402 1402 1402 1401 1401 1401 1401 1401 1402 1402 1402 1403 1403 1403 1404 1405 1406 1407 1408 1410 1410 1411 1412 1413 1414 1415 1415 1416 1416 1416 1416 1417 1417 1418 1418 1419 1419 1419 1419 1420 1420 1420 1421 1421 1422 1422 1423 1424 1424 1425 1425 1425 1426 1427 1427 1427
1403 1403 1402 1402 1402 1402 1401 1401 1401 1401 1401 1401 1401 1401 1400 1400 1400 1400 1400 1400 1400 1400 1400 1401 1401 1401 1402 1403 1404 1404 1405 1406 1408 1409 1410 1410 1411 1412 1413 1414 1414 1415 1415 1415 1415 1416 1416 1417 1417 1418 1418 1418 1419 1419 1420 1420 1420 1421 1421 1422 1423 1423 1424 1424 1425 1425 1426 1426 1427
1401 1401 1400 1400 1400 1400 1400 1399 1399 1399 1399 1399 1399 1399 1399 1399 1398 1398 1398 1398 1398 1399 1399 1399 1400 1400 1401 1401 1402 1403 1403 1405 1406 1407 1408 1409 1410 1411 1411 1412 1412 1413 1413 1414 1414 1415 1415 1415 1416 1416 1417 1417 1418 1418 1419 1419 1419 1420 1420 1421 1421 1422 1423 1423 1424 1424 1425 1425 1426
1400 1399 1399 1398 1398 1398 1398 1397 1397 1397 1397 1397 1397 1397 1397 1397 1397 1396 1396 1396 1396 1397 1397 1398 1398 1399 1399 1400 1400 1401 1401 1402 1404 1405 1406 1407 1408 1409 1410 1410 1411 1411 1411 1412 1412 1413 1414 1414 1415 1415 1415 1416 1417 1417 1418 1418 1418 1419 1419 1420 1420 1421 1422 1422 1423 1423 1424 1425 1425
1398 1397 1397 1396 1396 1396 1396 1395 1395 1395 1395 1395 1395 1395 1395 1395 1395 1395 1394 1394 1395 1395 1396 1396 1396 1397 1397 1398 1398 1399 1400 1400 1402 1403 1404 1405 1406 1407 1408 1409 1409 1410 1410 1410 1411 1411 1412 1413 1413 1414 1414 1415 1415 1416 1416 1417 1417 1418 1418 1419 1419 1420 1421 1421 1422 1422 1423 1423 1424
Wind_Speed
13 13 12 11 11 10 10 10 10 10 10 10 11 11 11 11 10 9 8 8 8 9 10 10 11 11 11 11 11 10 10 9 8 8 7 7 7 6 5 5 4 4 5 6 7 8 8 9 9 9 7 6 7 11 14 17 18 20 24 31 37 42 45 47 51 54 55 56 57
13 13 13 12 11 10 10 10 10 10 10 10 10 10 11 11 10 9 8 8 8 9 9 10 10 10 11 11 11 11 10 10 9 8 7 7 7 7 7 6 6 5 5 5 6 7 7 8 8 9 9 7 5 6 10 14 16 17 20 26 33 39 42 45 49 53 56 57 58
13 13 13 12 11 10 10 10 10 10 9 9 9 10 10 11 10 9 8 7 7 8 8 9 9 10 10 11 11 11 11 11 10 9 8 8 8 8 8 7 7 6 6 6 6 6 6 7 7 8 8 8 7 5 6 10 14 15 17 21 28 34 39 42 46 50 54 56 58
13 13 13 12 12 11 10 10 10 10 9 9 9 9 9 10 10 9 8 7 7 7 8 8 9 9 10 10 11 11 11 11 11 10 10 9 8 8 8 8 7 7 7 6 6 6 6 6 6 6 7 8 8 7 6 7 10 12 14 17 23 30 35 39 43 47 51 54 56
13 13 13 13 12 11 10 10 10 10 9 9 9 9 9 9 9 9 8 8 7 7 7 8 8 8 9 10 10 11 11 11 12 11 11 10 9 9 8 8 8 7 7 6 6 6 6 6 6 6 6 7 7 8 8 7 7 8 11 14 19 25 31 36 40 44 48 51 54
13 13 13 13 13 12 11 10 10 10 9 9 9 8 8 8 8 8 8 8 7 7 7 7 7 8 8 9 10 10 11 11 12 12 12 11 10 10 9 8 8 7 7 7 7 7 7 7 6 6 5 6 6 7 7 8 7 7 7 9 14 19 25 31 36 41 44 48 51
12 13 13 13 13 13 12 11 11 10 10 9 9 8 8 8 8 7 8 8 8 7 7 7 7 7 8 8 9 9 10 10 11 11 11 11 11 10 10 9 8 8 8 7 7 7 7 7 6 6 5 5 4 5 5 6 7 7 7 6 8 13 19 25 30 35 40 43 47
12 13 13 14 14 14 13 13 12 11 10 10 9 9 8 8 8 7 7 7 7 7 7 7 7 7 7 7 8 8 9 9 10 10 11 11 11 10 10 9 9 9 8 8 8 7 7 7 7 6 5 5 4 4 4 5 6 7 7 7 6 8 13 19 24 29 33 37 41
12 13 13 14 14 14 14 14 13 12 11 10 10 9 9 9 8 8 7 7 7 7 7 7 7 7 7 7 7 7 7 8 8 9 9 10 10 10 10 10 9 9 9 9 8 8 8 8 7 7 6 5 4 4 3 3 4 5 6 7 6 5 8 13 17 22 26 31 35
11 12 13 14 14 15 15 15 14 13 12 11 10 10 9 9 9 8 8 7 7 7 7 7 7 7 7 6 6 6 6 6 7 7 8 8 9 9 9 10 9 9 9 9 9 8 8 8 7 7 6 6 5 4 2 2 2 3 4 6 6 5 5 8 12 16 19 24 29
11 12 13 14 15 15 15 16 15 14 13 12 11 11 10 10 9 9 9 8 8 7 7 7 6 6 6 6 6 5 5 5 5 6 6 6 7 7 8 8 9 9 8 9 9 8 8 8 7 6 6 6 5 4 3 2 2 2 3 3 4 4 4 5 7 11 14 18 22
11 12 13 14 15 16 16 16 16 15 15 13 12 11 11 11 10 10 9 9 8 8 7 7 7 6 6 6 5 5 5 5 5 5 5 5 5 6 6 7 7 8 8 8 8 8 8 8 7 6 5 4 4 4 4 3 2 1 1 1 2 3 3 4 5 7 10 14 17
12 12 12 14 15 16 17 17 17 16 16 15 14 12 12 11 11 11 10 10 9 9 8 8 7 7 6 6 5 5 5 5 5 5 4 4 4 5 5 5 6 6 7 7 7 8 8 8 7 6 4 3 3 4 4 4 3 2 1 1 1 1 1 2 2 4 7 10 13
13 12 12 13 14 16 17 17 17 17 17 16 15 14 13 12 12 11 11 10 10 10 9 8 8 7 7 6 6 5 5 5 5 5 5 4 4 4 4 4 5 5 6 7 7 7 8 8 8 7 6 4 2 2 3 4 4 3 2 1 1 1 1 1 1 2 3 5 8
14 13 12 12 13 15 16 17 18 18 17 17 16 15 14 13 13 12 11 11 10 10 10 9 9 8 8 7 6 5 5 5 5 5 5 5 4 4 4 4 4 5 5 6 6 7 8 9 9 8 7 5 3 2 2 3 4 4 3 3 2 2 2 2 2 2 2 2 4
15 13 13 12 13 14 15 16 17 18 18 18 17 16 15 14 14 13 12 11 11 10 10 10 9 9 8 8 7 6 6 5 5 5 5 5 5 4 4 3 4 4 5 5 6 6 7 8 9 9 9 7 6 4 3 2 2 3 4 3 3 3 3 3 3 3 2 2 2
15 14 13 13 13 13 14 15 16 17 18 18 18 17 16 15 15 14 13 12 11 11 10 10 10 9 9 8 8 7 6 6 6 6 6 6 5 5 4 4 3 4 4 5 5 6 7 8 9 9 9 9 8 6 5 3 3 3 3 3 3 3 3 3 3 3 3 3 2
16 15 14 13 13 13 13 14 15 17 18 18 18 18 18 17 16 15 14 13 12 11 11 10 10 10 10 9 9 8 7 7 6 6 6 6 6 5 5 4 4 4 4 4 5 5 6 7 8 9 9 10 9 8 7 6 5 4 4 4 4 4 4 4 4 4 4 3 3
16 16 15 14 13 13 13 14 15 16 17 18 19 19 19 18 17 17 16 15 14 13 12 11 11 11 10 10 9 9 8 8 7 6 6 6 6 6 5 5 4 4 4 4 4 5 5 6 7 8 8 9 9 9 9 8 7 6 5 4 4 4 4 4 4 4 4 4 4
15 15 15 14 14 13 13 13 14 16 17 19 19 20 20 19 19 18 17 16 15 14 13 13 12 11 11 11 10 10 9 9 8 7 6 6 6 6 6 5 5 5 5 4 4 5 5 5 6 7 8 8 9 9 9 9 8 7 6 6 5 4 4 3 4 4 5 5 5
15 15 15 15 14 14 13 13 14 16 17 18 19 20 21 21 20 20 19 18 17 16 15 14 13 12 12 12 11 11 10 10 9 8 7 6 6 6 6 6 6 6 5 5 5 5 4 5 5 6 7 8 8 9 9 9 9 8 7 7 6 6 5 4 4 4 5 6 6
14 14 14 15 15 14 14 14 14 15 16 18 19 20 21 21 21 21 20 19 19 18 17 15 14 13 13 12 12 12 11 11 10 9 8 7 6 6 6 6 7 7 6 6 6 5 5 5 5 6 6 7 8 8 8 9 9 8 8 8 7 7 7 7 6 5 4 5 7
14 13 14 14 15 15 15 14 14 15 16 17 18 19 21 22 22 22 22 21 20 19 18 17 16 14 14 13 13 13 12 11 11 10 9 8 7 7 7 7 7 7 7 7 7 6 5 5 5 5 6 7 7 8 8 8 8 8 8 8 8 8 9 9 8 8 7 6 7
14 13 13 14 15 15 15 15 15 15 15 16 17 18 20 21 22 23 23 22 22 21 20 19 17 16 15 14 14 14 13 12 11 11 10 9 8 8 7 7 7 8 8 8 8 7 7 6 6 6 6 7 7 8 8 7 7 7 7 7 7 8 9 9 10 10 10 9 8
15 14 14 14 14 15 16 16 16 15 15 15 16 17 19 20 22 23 24 24 23 22 21 20 19 18 17 16 15 14 14 13 12 12 11 10 10 9 8 7 8 8 8 9 9 8 8 7 7 7 7 7 7 8 8 8 7 7 7 7 7 7 8 9 10 10 11 11 11
16 15 15 14 14 14 15 16 16 16 15 15 16 17 18 19 21 22 24 24 24 23 22 21 20 19 18 17 16 16 15 14 13 13 12 11 11 10 9 8 8 8 9 9 9 9 9 8 8 8 8 8 8 8 8 8 7 7 7 7 7 7 7 8 8 9 10 12 13
16 16 16 15 15 14 14 15 16 16 16 16 16 16 17 18 20 21 23 24 25 25 24 23 22 21 20 19 18 17 16 15 14 13 13 12 12 11 10 9 9 9 9 9 10 10 10 10 9 9 9 9 9 9 9 8 8 7 7 7 7 7 7 7 8 8 9 11 12
17 17 17 17 16 15 14 14 15 16 16 16 16 17 17 18 19 21 22 24 25 26 25 24 23 22 21 20 19 18 17 16 15 14 14 13 13 12 11 10 10 10 9 10 10 10 11 10 10 10 10 10 10 10 9 9 9 8 8 7 7 7 7 7 8 8 9 9 11
17 17 18 18 17 16 15 15 14 15 15 16 17 17 18 19 19 20 22 23 25 26 26 25 24 23 22 21 20 19 18 17 16 15 15 14 13 13 12 11 11 10 10 10 10 11 11 11 11 11 11 11 11 11 11 10 10 9 9 9 8 8 8 8 8 8 9 9 10
18 18 18 18 18 17 17 15 14 14 15 16 17 18 19 19 20 20 21 22 24 25 26 26 26 25 24 22 21 20 19 18 17 16 16 15 14 13 13 12 12 11 11 11 11 11 11 11 11 11 12 12 12 12 12 11 11 11 10 10 9 9 9 8 9 9 9 9 10
19 19 19 19 18 18 18 17 15 14 14 15 17 18 19 20 20 20 21 22 23 24 26 27 27 26 25 24 22 21 20 19 18 18 17 16 15 14 14 13 13 12 12 11 11 11 11 11 11 12 12 13 13 13 13 13 12 12 11 11 10 10 10 9 9 9 9 10 10
19 19 19 19 19 19 18 18 17 16 15 15 17 18 19 20 20 21 21 22 22 24 25 26 27 27 26 25 23 22 21 20 19 18 18 17 16 16 15 14 14 13 13 12 12 12 11 11 11 12 13 13 14 14 14 14 13 13 12 12 11 11 10 10 10 10 10 10 10
20 20 19 19 19 19 19 19 18 17 16 16 16 17 19 20 21 21 22 22 23 23 24 26 27 27 27 26 24 23 22 21 20 19 19 18 17 17 16 16 15 15 14 14 13 12 12 12 12 12 13 13 14 14 14 14 14 14 13 13 12 12 11 11 11 10 10 10 10
19 20 20 20 19 19 19 19 19 19 18 17 16 17 18 19 21 21 22 22 23 23 24 25 26 26 27 26 25 24 23 22 21 21 20 19 18 18 17 17 16 16 15 15 14 13 12 12 12 12 12 13 13 14 14 15 15 14 14 13 13 12 12 12 11 11 11 10 10
18 19 20 20 20 19 19 19 20 20 19 18 17 16 17 18 20 21 21 22 22 23 24 24 25 26 26 27 26 25 24 23 22 22 21 20 20 19 19 18 17 17 17 16 15 14 13 13 12 12 12 13 13 13 14 15 15 15 14 14 13 13 13 12 12 12 12 11 11
18 19 20 20 20 20 20 20 20 20 20 19 18 16 16 17 18 19 20 21 22 23 24 24 25 26 26 27 26 26 25 24 23 23 22 22 21 21 20 19 19 18 18 17 16 15 14 13 13 13 13 13 13 13 14 14 14 15 15 14 14 14 13 13 13 13 12 12 12
17 18 20 20 20 20 20 20 20 21 21 20 18 16 15 15 16 17 19 20 22 23 24 25 25 25 26 26 26 26 25 24 24 24 23 23 23 22 21 20 20 20 19 18 17 16 15 14 14 14 14 13 12 12 13 14 14 14 15 14 14 14 14 13 13 13 13 12 12
17 18 19 20 20 20 20 20 20 21 21 20 18 16 15 14 14 15 17 19 21 23 24 25 25 25 25 25 25 25 25 25 25 25 25 25 24 23 22 22 21 21 20 19 18 17 16 15 14 14 14 13 12 12 13 13 14 14 14 14 14 14 14 13 13 13 13 13 12
18 19 19 20 20 20 20 20 21 21 21 20 19 17 16 14 14 14 15 17 19 21 23 24 25 25 24 24 24 24 25 25 25 26 26 26 25 25 24 23 22 21 21 20 19 18 17 16 15 15 15 14 12 12 13 13 14 14 14 14 14 14 14 13 13 13 12 12 12
19 19 20 20 20 20 20 21 21 21 20 20 19 18 16 15 14 13 14 15 18 20 22 24 24 24 24 24 24 24 25 26 26 27 27 27 27 26 25 24 23 22 22 21 20 19 18 17 16 16 15 14 13 12 13 14 14 14 14 14 13 13 13 13 13 13 12 12 12
20 20 20 20 20 20 20 20 21 21 21 21 20 19 17 16 15 14 14 15 17 19 21 23 24 24 24 25 25 25 26 27 27 28 28 28 28 27 26 25 24 23 23 22 21 20 19 18 17 17 16 15 14 14 14 14 14 14 14 13 13 13 13 13 13 13 12 12 12
Wind_Direction
297 297 300 304 312 319 325 330 334 340 347 352 355 357 357 355 349 339 328 319 313 308 306 305 304 304 306 310 314 319 321 322 324 327 331 334 337 337 333 325 317 320 331 340 343 346 350 354 355 352 339 304 266 248 239 234 232 229 225 220 216 214 214 216 216 217 217 217 218
295 294 294 297 302 310 317 322 327 332 339 346 352 356 358 358 355 347 335 321 310 304 301 300 300 301 301 302 305 309 313 316 318 320 324 327 330 333 333 330 322 313 311 319 329 335 339 345 352 356 354 344 317 272 249 241 237 234 229 222 218 215 215 215 216 217 217 218 218
293 291 290 291 294 301 308 314 319 324 330 337 345 352 356 359 358 354 343 327 313 305 300 297 298 298 298 298 299 302 305 309 312 313 315 317 320 325 330 333 329 320 309 303 307 314 322 331 341 350 352 350 341 315 271 249 243 240 235 227 221 217 215 214 214 215 216 216 215
291 289 287 287 287 291 298 305 310 315 321 328 337 344 350 355 357 356 351 338 323 310 302 298 297 297 297 297 297 297 299 302 305 307 307 307 308 313 320 328 331 327 317 306 299 297 303 314 327 337 344 347 344 335 314 279 257 248 242 233 224 218 215 214 213 213 214 214 214
289 286 285 283 283 284 287 293 299 305 311 319 327 335 342 348 353 354 352 346 333 320 311 306 301 299 299 298 297 297 297 298 300 301 301 301 299 301 305 314 323 326 323 315 307 300 296 299 311 325 334 338 340 339 334 321 293 267 250 238 226 218 214 212 212 213 214 215 215
286 283 281 280 279 278 279 283 288 294 300 308 317 324 332 339 345 349 351 348 342 333 324 316 310 306 304 301 300 298 297 297 297 298 298 298 295 293 294 298 306 314 320 321 317 310 302 297 300 311 325 331 334 336 336 333 322 301 271 245 229 219 213 210 209 210 212 214 215
283 280 279 278 276 274 274 275 279 283 289 296 305 313 320 326 334 340 343 344 343 339 332 325 319 314 310 306 303 301 300 298 297 297 297 296 294 290 287 287 290 296 305 313 318 317 312 305 301 305 316 325 326 325 327 329 326 318 304 273 239 223 215 210 207 206 208 209 212
282 278 276 275 274 272 270 269 271 275 280 286 294 301 308 314 321 327 332 336 338 336 334 330 325 321 316 312 308 305 303 300 299 298 297 297 294 290 286 281 280 282 288 297 306 313 316 314 309 305 309 321 320 311 306 312 317 318 315 305 277 240 221 214 209 205 204 205 207
285 279 276 273 271 269 268 266 265 267 272 277 283 290 297 303 309 314 320 324 326 328 329 329 327 324 320 316 313 310 307 305 303 301 299 298 295 292 287 282 277 275 276 281 289 299 308 313 314 309 305 310 317 311 293 290 301 309 314 318 309 277 239 224 215 209 205 204 204
290 282 276 272 269 267 266 264 262 262 265 269 275 281 287 293 298 304 307 310 312 316 320 323 323 322 320 318 317 315 312 310 308 306 303 300 297 294 290 285 280 273 269 270 275 283 293 302 310 312 307 302 308 316 310 283 283 294 307 317 319 305 270 240 225 217 212 207 205
293 285 278 273 269 266 264 262 261 260 260 263 268 273 278 282 288 293 296 299 302 305 309 312 316 318 319 318 317 316 315 314 312 310 308 304 300 296 292 288 283 276 268 263 264 269 277 286 297 307 309 302 296 302 313 314 286 278 290 307 319 315 297 266 242 228 220 215 210
294 288 281 276 271 267 264 262 261 259 258 258 262 267 271 275 279 284 289 292 295 297 299 301 305 309 312 314 314 314 314 313 313 312 311 309 305 300 295 291 286 279 271 262 256 256 262 270 279 291 302 304 294 288 293 309 310 283 262 279 307 314 307 288 261 240 229 222 217
294 290 285 280 275 271 267 264 261 259 257 256 257 260 265 270 273 278 283 287 290 291 292 293 295 299 302 305 307 307 309 308 308 309 310 310 309 307 301 295 289 282 274 265 254 248 249 254 260 269 281 294 294 283 278 283 295 300 274 232 227 258 289 289 270 250 237 229 224
292 292 289 285 280 275 271 267 263 260 258 255 255 256 259 264 268 272 276 282 285 287 287 287 288 290 292 295 298 300 301 302 302 302 303 305 308 307 305 299 293 286 277 268 257 246 240 241 246 251 257 265 275 277 271 270 275 284 289 271 223 197 187 191 224 240 237 231 226
289 290 290 287 283 279 275 271 267 263 259 256 254 254 255 258 263 266 270 275 279 282 282 283 283 283 284 286 288 291 293 294 295 295 296 297 299 301 302 300 296 290 281 273 262 249 240 236 238 241 244 245 247 253 257 260 264 270 278 281 269 235 204 182 172 172 188 211 219
286 288 289 288 285 282 278 274 270 266 262 258 255 253 253 254 257 260 264 268 272 275 277 278 278 278 278 280 281 283 285 288 289 290 290 290 288 289 290 292 292 290 285 278 268 256 246 239 237 238 240 241 241 239 237 239 250 259 266 275 280 269 243 212 188 172 165 171 186
286 285 286 287 286 283 280 277 273 269 265 260 256 253 251 251 253 255 257 260 263 267 270 272 272 273 275 276 277 278 280 282 284 285 285 283 280 277 274 274 279 282 283 279 271 262 252 245 241 241 242 243 243 242 238 232 232 241 253 264 274 275 268 254 229 201 179 169 163
286 284 283 284 285 284 280 277 273 270 266 262 257 253 251 250 250 251 252 254 256 259 262 264 266 268 270 272 273 275 276 278 280 280 280 279 275 270 264 260 262 268 272 274 271 266 257 250 246 244 244 245 247 247 244 240 234 230 233 244 257 267 272 268 257 236 209 185 167
289 284 281 281 281 281 279 275 272 269 265 261 257 253 250 248 247 247 248 250 252 253 255 257 259 262 265 268 270 271 272 274 276 276 276 274 271 266 259 251 248 250 257 263 266 264 260 253 248 246 245 247 248 248 247 245 238 230 224 224 236 251 261 264 261 253 239 217 194
292 285 280 278 277 277 276 274 271 268 264 261 257 252 249 246 245 245 245 247 248 249 250 251 253 256 260 263 265 268 269 270 272 273 273 272 269 264 257 249 242 240 242 249 255 258 257 253 249 247 246 245 245 246 246 245 240 233 223 216 216 224 235 248 252 252 248 238 223
296 288 281 276 274 274 274 272 270 267 265 261 258 253 249 245 243 242 242 243 245 246 246 247 248 251 255 258 261 263 265 267 268 270 271 271 268 264 256 249 242 237 235 238 242 248 250 250 248 246 245 245 243 243 243 242 241 236 227 216 209 205 207 213 223 233 238 239 236
300 291 283 276 273 271 271 271 270 268 266 263 260 256 251 246 243 241 240 241 242 243 244 244 245 247 250 253 256 259 262 263 266 268 269 269 268 262 256 250 244 238 234 232 233 235 239 241 242 243 243 244 243 241 240 239 239 236 231 222 213 205 200 198 199 202 212 224 232
304 297 287 279 273 270 270 270 270 269 267 265 263 259 255 249 245 242 240 239 240 240 241 242 243 244 246 249 252 255 258 261 263 265 266 267 267 263 257 252 246 240 235 232 230 229 229 229 230 234 238 241 242 240 239 237 236 235 233 227 220 211 206 202 198 194 193 201 214
308 303 295 285 277 272 270 270 270 269 268 266 264 262 257 253 248 243 240 239 238 239 239 240 241 242 243 245 248 252 255 257 259 262 264 266 266 264 260 255 249 244 239 236 232 229 225 223 222 223 228 234 237 238 237 234 232 231 231 229 224 217 211 207 203 199 196 196 203
309 308 303 295 285 277 272 270 269 269 267 265 263 261 258 255 251 246 242 240 238 238 238 239 239 240 241 243 245 248 251 253 255 257 260 263 265 264 262 258 254 248 243 240 235 231 227 222 218 216 218 224 230 234 235 233 230 227 225 226 225 221 216 211 208 205 202 200 201
307 308 307 303 295 286 278 273 269 267 265 263 262 261 259 257 253 249 245 242 239 238 237 237 238 238 239 241 242 244 247 249 252 253 256 258 261 262 263 261 257 251 247 243 239 235 230 224 218 214 213 216 222 228 232 232 230 226 222 221 222 221 218 215 211 206 203 202 202
307 306 305 305 303 297 288 279 272 267 264 262 260 259 258 256 254 250 247 243 241 239 237 236 236 237 238 239 240 241 244 246 248 250 252 254 256 258 259 259 257 254 250 246 242 239 234 228 221 216 212 211 215 220 225 229 230 228 225 221 219 219 217 215 213 209 206 205 206
309 304 303 302 304 303 297 288 278 270 265 261 258 256 255 254 252 251 248 245 242 239 238 237 236 236 236 237 238 239 241 244 246 247 249 251 252 254 255 256 256 254 251 248 244 241 238 233 226 220 215 212 212 214 218 222 226 228 228 226 222 219 217 216 214 213 212 212 211
312 306 303 300 301 302 302 297 287 276 267 261 257 254 252 252 251 250 248 246 243 241 239 237 236 235 235 236 236 237 239 241 243 245 246 248 249 250 251 253 253 253 251 248 245 243 240 237 231 225 219 216 214 214 215 217 221 224 227 229 228 225 221 218 216 215 214 213 213
314 309 305 301 299 299 301 300 293 282 271 263 257 254 252 251 250 249 248 247 244 242 240 238 236 235 235 235 235 236 237 238 240 242 244 246 247 247 247 248 250 250 250 248 246 244 241 239 234 229 224 220 217 216 215 216 217 220 223 227 230 229 228 224 221 218 216 214 213
313 310 307 302 299 297 298 298 295 288 277 267 260 255 253 250 249 248 248 247 245 243 241 238 236 235 234 233 233 233 234 236 237 239 242 244 245 244 244 244 245 247 247 247 246 244 242 239 235 231 227 225 222 219 218 217 217 218 220 224 228 230 231 230 227 223 219 217 215
310 309 306 303 299 296 296 296 294 290 282 272 264 258 254 251 249 248 247 246 245 244 241 239 237 234 232 231 231 231 232 233 235 237 239 241 242 242 241 241 242 243 244 245 245 244 242 240 237 233 230 227 225 222 221 221 220 219 220 221 224 228 230 232 231 228 225 222 218
306 305 304 302 299 296 294 293 293 290 285 278 269 262 256 253 250 248 246 245 245 244 243 241 238 235 232 230 229 229 230 231 233 235 237 239 240 240 239 239 240 240 241 242 242 242 241 240 238 235 232 229 226 224 223 223 223 222 221 221 222 224 227 229 231 230 229 227 223
302 302 301 300 297 294 292 290 290 289 287 282 274 266 260 255 251 248 246 245 245 244 243 242 239 236 233 230 228 227 227 228 230 232 234 236 237 238 238 238 238 238 238 239 239 239 240 239 238 237 235 231 227 225 223 223 223 223 223 222 222 222 223 224 227 228 229 229 228
298 298 298 297 296 293 290 288 287 286 286 284 279 271 262 256 252 248 246 245 244 244 243 242 240 237 234 230 227 225 224 225 227 229 231 233 235 236 236 236 236 237 236 236 236 236 236 236 237 237 237 234 229 225 223 223 222 222 222 222 222 222 222 222 222 223 224 226 227
294 294 295 295 294 292 289 286 284 283 284 284 282 274 265 257 252 249 246 245 244 243 243 242 241 238 235 231 227 224 223 223 224 227 229 230 232 233 233 233 234 234 234 234 233 233 233 233 234 236 236 235 230 226 224 223 222 221 220 220 220 220 221 221 220 220 220 221 223
289 291 293 293 293 291 288 285 282 281 281 283 282 277 267 257 250 247 245 244 243 243 242 241 240 238 236 232 228 224 222 222 223 225 227 228 230 231 231 231 231 231 232 232 231 230 230 230 230 232 234 234 231 227 225 224 223 221 219 218 217 218 219 219 219 219 218 218 218
285 288 290 291 291 290 288 284 281 279 279 280 281 278 271 261 251 245 244 244 244 243 242 241 239 238 236 233 229 226 223 223 224 225 226 227 229 229 230 229 229 229 229 229 229 228 227 227 227 229 231 232 231 229 227 225 223 222 220 218 217 216 216 217 218 218 217 216 216
281 284 287 288 289 289 287 284 281 279 278 278 278 277 274 268 257 248 244 244 245 244 242 240 238 237 235 233 230 227 224 224 225 226 226 227 228 228 228 228 227 227 227 227 227 226 225 225 225 227 229 229 229 228 227 225 224 223 222 220 218 216 215 216 217 217 217 216 215
279 281 283 285 286 287 286 284 282 279 277 275 275 276 275 272 264 253 246 244 245 245 243 240 237 235 234 232 230 228 226 225 225 226 227 227 227 227 227 227 226 225 225 225 225 225 224 224 224 226 227 226 224 224 225 224 224 223 223 222 220 217 215 215 216 217 217 217 215
278 279 281 282 284 285 285 284 282 279 276 274 273 274 274 272 266 259 252 247 246 245 243 240 237 234 232 231 230 228 227 226 226 227 227 227 226 226 226 226 225 224 224 224 224 224 223 223 223 224 225 224 221 220 222 223 223 223 223 223 221 219 217 216 216 217 218 218 217